Regional Weather Roundup
Issued by NWS Goodland, KS

Home | Current Version | Previous Version | Graphics & Text | Print | Product List | Glossary On
Versions: 1 2 3 4 5 6 7 8 9 10 11 12 13 14 15 16 17 18 19 20 21 22 23 24 25 26 27 28 29 30 31 32 33 34 35 36 37 38 39 40 41 42 43 44 45 46 47 48 49 50
000
ASUS43 KGLD 041908
RWRGLD

GOODLAND FORECAST AREA HOURLY WEATHER ROUNDUP
NATIONAL WEATHER SERVICE GOODLAND KS
1200 PM MST WED MAR 04 2015

...OFFICIAL OBSERVATIONS...

CITY           SKY/WX    TMP DP  RH WIND       PRES   REMARKS
GOODLAND KS    NOT AVBL
HILL CITY KS   NOT AVBL
IMPERIAL NEB   NOT AVBL
MCCOOK NEB     NOT AVBL
AKRON CO       NOT AVBL
BURLINGTON CO  NOT AVBL
LIMON CO       NOT AVBL
$$

...UNOFFICIAL OBSERVATIONS...

CITY           SKY/WX    TMP DP  RH WIND       PRES   REMARKS
COLBY KS       SUNNY     27  14  59 NW12      30.25F WCI  16
GOVE KS          N/A     29  32 100 MISG        N/A
LENORA KS        N/A     26  32 100 S12         N/A  WCI  16
NORTON KS      MOSUNNY   28   7  40 NW14      30.27F WCI  17
SHARON SPRINGS   N/A     25  13  59 N8G16       N/A
KIT CARSON CO    N/A     20   6  53 MISG        N/A
YUMA CO          N/A     24   7  47 N6          N/A
$$


USA.gov is the U.S. government's official web portal to all federal, state and local government web resources and services.